AAL1333 KCLT-KMEM

Flight info

Callsign AAL1333
Flight time 1h 33m
Altitude 28000
Route BOBZY5 BNA BLUZZ5
Aircraft A320/M-VGDW/C

Departure

Time 2026-05-08 00:44
Airport Charlotte Douglas International Airport (KCLT)

Arrival

Time 2026-05-08 02:17
Airport Memphis International Airport (KMEM)
Time Latitude Longitude Altitude Speed Heading
2026-05-08 00:23 35.22011 -80.93971 736 ft 0 kts 356°
2026-05-08 00:35 35.22005 -80.93971 726 ft 2 kts 356°
2026-05-08 00:36 35.21988 -80.93969 726 ft 2 kts 356°
2026-05-08 00:36 35.21971 -80.93968 725 ft 3 kts 357°
2026-05-08 00:36 35.21955 -80.93961 725 ft 2 kts 287°
2026-05-08 00:36 35.21956 -80.93942 723 ft 2 kts 235°
2026-05-08 00:37 35.21957 -80.93941 725 ft 0 kts 235°
2026-05-08 00:39 35.21926 -80.93953 725 ft 10 kts 175°
2026-05-08 00:39 35.21858 -80.93951 725 ft 9 kts 200°
2026-05-08 00:39 35.21814 -80.93999 724 ft 8 kts 219°
2026-05-08 00:39 35.21763 -80.94014 726 ft 7 kts 181°
2026-05-08 00:40 35.21717 -80.93997 724 ft 7 kts 149°
2026-05-08 00:40 35.21650 -80.93927 725 ft 18 kts 138°
2026-05-08 00:40 35.21534 -80.93802 725 ft 25 kts 139°
2026-05-08 00:40 35.21399 -80.93666 722 ft 25 kts 164°
2026-05-08 00:41 35.21228 -80.93639 722 ft 24 kts 175°
2026-05-08 00:41 35.21061 -80.93626 720 ft 23 kts 178°
2026-05-08 00:41 35.20902 -80.93613 719 ft 22 kts 175°
2026-05-08 00:41 35.20749 -80.93601 716 ft 21 kts 177°
2026-05-08 00:42 35.20597 -80.93586 717 ft 24 kts 175°
2026-05-08 00:42 35.20417 -80.93570 714 ft 27 kts 175°
2026-05-08 00:42 35.20226 -80.93555 713 ft 29 kts 176°
2026-05-08 00:42 35.20112 -80.93491 713 ft 16 kts 101°
2026-05-08 00:43 35.20179 -80.93420 714 ft 14 kts 356°
2026-05-08 00:43 35.20185 -80.93421 710 ft 0 kts 356°
2026-05-08 00:43 35.20189 -80.93421 710 ft 4 kts 356°
2026-05-08 00:44 35.20485 -80.93438 715 ft 86 kts 357°
2026-05-08 00:44 35.21346 -80.93516 735 ft 156 kts 356°
2026-05-08 00:44 35.22481 -80.93619 1357 ft 172 kts 356°
2026-05-08 00:44 35.23737 -80.93708 2019 ft 191 kts
2026-05-08 00:45 35.25108 -80.93395 2365 ft 213 kts 15°
2026-05-08 00:45 35.26643 -80.92914 2819 ft 236 kts
2026-05-08 00:45 35.28267 -80.93313 3569 ft 245 kts 333°
2026-05-08 00:45 35.29519 -80.94699 4440 ft 253 kts 304°
2026-05-08 00:46 35.30080 -80.96781 5340 ft 261 kts 274°
2026-05-08 00:46 35.29938 -80.98968 6285 ft 261 kts 262°
2026-05-08 00:46 35.29691 -81.01162 7267 ft 259 kts 262°
2026-05-08 00:46 35.29444 -81.03340 8232 ft 258 kts 262°
2026-05-08 00:47 35.29201 -81.05531 8777 ft 260 kts 262°
2026-05-08 00:47 35.28877 -81.07682 8958 ft 257 kts 251°
2026-05-08 00:47 35.28169 -81.09693 9000 ft 257 kts 247°
2026-05-08 00:47 35.27431 -81.11687 9012 ft 257 kts 247°
2026-05-08 00:48 35.26688 -81.13679 9009 ft 257 kts 247°
2026-05-08 00:48 35.25941 -81.15667 9140 ft 260 kts 247°
2026-05-08 00:48 35.25184 -81.17674 10057 ft 259 kts 247°
2026-05-08 00:48 35.24395 -81.19783 10424 ft 281 kts 247°
2026-05-08 00:49 35.23552 -81.22052 10643 ft 304 kts 247°
2026-05-08 00:49 35.22661 -81.24453 10959 ft 321 kts 248°
2026-05-08 00:49 35.21726 -81.26959 11607 ft 326 kts 248°
2026-05-08 00:49 35.20779 -81.29494 12333 ft 329 kts 249°
2026-05-08 00:50 35.19910 -81.32091 13022 ft 331 kts 256°
2026-05-08 00:50 35.19451 -81.34875 13744 ft 331 kts 266°
2026-05-08 00:50 35.19357 -81.37656 14377 ft 331 kts 269°
2026-05-08 00:50 35.19284 -81.40500 15114 ft 330 kts 269°
2026-05-08 00:51 35.19206 -81.43307 15817 ft 331 kts 269°
2026-05-08 00:51 35.19125 -81.46123 16492 ft 332 kts 269°
2026-05-08 00:51 35.19038 -81.48949 17179 ft 333 kts 269°
2026-05-08 00:51 35.18951 -81.51780 17850 ft 334 kts 269°
2026-05-08 00:52 35.18865 -81.54631 18462 ft 336 kts 269°
2026-05-08 00:52 35.18770 -81.57493 19106 ft 337 kts 268°
2026-05-08 00:52 35.18670 -81.60357 19676 ft 338 kts 268°
2026-05-08 00:52 35.18568 -81.63229 20247 ft 339 kts 268°
2026-05-08 00:53 35.18575 -81.66105 20782 ft 340 kts 276°
2026-05-08 00:53 35.19097 -81.68946 21278 ft 344 kts 281°
2026-05-08 00:53 35.19689 -81.71780 21791 ft 345 kts 281°
2026-05-08 00:53 35.20289 -81.74622 22292 ft 346 kts 281°
2026-05-08 00:54 35.20897 -81.77480 22767 ft 348 kts 281°
2026-05-08 00:54 35.21506 -81.80344 23241 ft 349 kts 280°
2026-05-08 00:54 35.22118 -81.83225 23657 ft 350 kts 280°
2026-05-08 00:54 35.22730 -81.86111 24047 ft 351 kts 280°
2026-05-08 00:55 35.23341 -81.88999 24507 ft 351 kts 281°
2026-05-08 00:55 35.23949 -81.91895 24902 ft 351 kts 281°
2026-05-08 00:55 35.24556 -81.94788 25307 ft 351 kts 281°
2026-05-08 00:55 35.25162 -81.97678 25707 ft 350 kts 281°
2026-05-08 00:56 35.25766 -82.00564 26096 ft 350 kts 281°
2026-05-08 00:56 35.26370 -82.03443 26471 ft 350 kts 281°
2026-05-08 00:56 35.26974 -82.06327 26827 ft 350 kts 281°
2026-05-08 00:56 35.27577 -82.09214 27171 ft 350 kts 281°
2026-05-08 00:57 35.28179 -82.12091 27491 ft 350 kts 281°
2026-05-08 00:57 35.28780 -82.14975 27815 ft 349 kts 281°
2026-05-08 00:57 35.29378 -82.17849 27938 ft 347 kts 280°
2026-05-08 00:57 35.29971 -82.20704 27952 ft 346 kts 281°
2026-05-08 00:58 35.30561 -82.23552 27957 ft 345 kts 281°
2026-05-08 00:58 35.31148 -82.26400 27955 ft 345 kts 280°
2026-05-08 00:58 35.31733 -82.29245 27969 ft 347 kts 280°
2026-05-08 00:58 35.32324 -82.32122 28160 ft 349 kts 281°
2026-05-08 00:59 35.32919 -82.35001 28533 ft 347 kts 281°
2026-05-08 00:59 35.33509 -82.37852 28945 ft 344 kts 281°
2026-05-08 00:59 35.34095 -82.40676 29368 ft 341 kts 280°
2026-05-08 00:59 35.34676 -82.43482 29773 ft 339 kts 280°
2026-05-08 01:00 35.35250 -82.46268 29938 ft 337 kts 280°
2026-05-08 01:00 35.36381 -82.51805 30000 ft 334 kts 280°
2026-05-08 01:01 35.37506 -82.57313 30000 ft 333 kts 280°
2026-05-08 01:01 35.38631 -82.62820 30024 ft 333 kts 280°
2026-05-08 01:02 35.39749 -82.68348 30018 ft 338 kts 279°
2026-05-08 01:02 35.40890 -82.73968 30015 ft 341 kts 280°
2026-05-08 01:03 35.42036 -82.79616 29993 ft 342 kts 279°
2026-05-08 01:03 35.43182 -82.85297 30002 ft 344 kts 279°
2026-05-08 01:04 35.44142 -82.90071 29995 ft 344 kts 279°
2026-05-08 01:04 35.45290 -82.95769 29990 ft 344 kts 279°
2026-05-08 01:05 35.46430 -83.01466 30002 ft 344 kts 279°
2026-05-08 01:05 35.47562 -83.07152 29994 ft 343 kts 279°
2026-05-08 01:06 35.48692 -83.12835 29995 ft 343 kts 279°
2026-05-08 01:06 35.49827 -83.18527 29983 ft 344 kts 279°
2026-05-08 01:07 35.50960 -83.24228 29976 ft 344 kts 279°
2026-05-08 01:07 35.52089 -83.29958 29971 ft 347 kts 279°
2026-05-08 01:08 35.53227 -83.35726 29973 ft 349 kts 279°
2026-05-08 01:08 35.54372 -83.41521 29984 ft 350 kts 279°
2026-05-08 01:09 35.55516 -83.47330 29993 ft 350 kts 279°
2026-05-08 01:09 35.56655 -83.53156 30003 ft 351 kts 279°
2026-05-08 01:10 35.57787 -83.58975 30021 ft 350 kts 279°
2026-05-08 01:10 35.58919 -83.64793 30060 ft 350 kts 279°
2026-05-08 01:11 35.60038 -83.70568 30024 ft 347 kts 279°
2026-05-08 01:11 35.61153 -83.76331 30012 ft 346 kts 279°
2026-05-08 01:12 35.62267 -83.82090 30025 ft 347 kts 279°
2026-05-08 01:12 35.63377 -83.87860 30024 ft 346 kts 279°
2026-05-08 01:13 35.64483 -83.93619 30019 ft 346 kts 279°
2026-05-08 01:13 35.65585 -83.99383 30013 ft 346 kts 279°
2026-05-08 01:14 35.66683 -84.05150 30012 ft 347 kts 279°
2026-05-08 01:14 35.67784 -84.10921 30012 ft 347 kts 279°
2026-05-08 01:15 35.68882 -84.16697 30008 ft 347 kts 279°
2026-05-08 01:15 35.69972 -84.22465 30007 ft 346 kts 279°
2026-05-08 01:16 35.71064 -84.28236 30008 ft 346 kts 279°
2026-05-08 01:16 35.72153 -84.34008 30019 ft 346 kts 279°
2026-05-08 01:17 35.73232 -84.39784 30027 ft 346 kts 279°
2026-05-08 01:17 35.74314 -84.45559 30026 ft 346 kts 279°
2026-05-08 01:18 35.75390 -84.51335 30025 ft 346 kts 279°
2026-05-08 01:18 35.76464 -84.57112 30025 ft 346 kts 279°
2026-05-08 01:19 35.77536 -84.62886 30019 ft 346 kts 279°
2026-05-08 01:19 35.78605 -84.68669 30038 ft 346 kts 279°
2026-05-08 01:20 35.79670 -84.74458 30033 ft 347 kts 279°
2026-05-08 01:20 35.80740 -84.80244 30032 ft 347 kts 278°
2026-05-08 01:21 35.81804 -84.86041 30029 ft 347 kts 279°
2026-05-08 01:21 35.82862 -84.91838 30029 ft 347 kts 279°
2026-05-08 01:22 35.83920 -84.97633 30037 ft 347 kts 279°
2026-05-08 01:22 35.84975 -85.03425 30033 ft 346 kts 279°
2026-05-08 01:23 35.86025 -85.09227 30054 ft 347 kts 279°
2026-05-08 01:23 35.87076 -85.15046 30052 ft 348 kts 278°
2026-05-08 01:24 35.88127 -85.20882 30051 ft 349 kts 279°
2026-05-08 01:24 35.89173 -85.26725 30038 ft 349 kts 278°
2026-05-08 01:25 35.90223 -85.32573 30054 ft 349 kts 279°
2026-05-08 01:25 35.91273 -85.38427 30063 ft 350 kts 279°
2026-05-08 01:26 35.92315 -85.44294 30059 ft 350 kts 278°
2026-05-08 01:26 35.93357 -85.50171 30060 ft 351 kts 278°
2026-05-08 01:27 35.94398 -85.56051 30067 ft 351 kts 278°
2026-05-08 01:27 35.95437 -85.61938 30069 ft 351 kts 278°
2026-05-08 01:28 35.96471 -85.67830 30074 ft 351 kts 279°
2026-05-08 01:28 35.97518 -85.73752 30073 ft 351 kts 278°
2026-05-08 01:29 35.98544 -85.79638 30066 ft 351 kts 278°
2026-05-08 01:29 35.99562 -85.85527 30061 ft 351 kts 278°
2026-05-08 01:30 36.00580 -85.91385 30071 ft 351 kts 278°
2026-05-08 01:30 36.01604 -85.97283 30063 ft 351 kts 278°
2026-05-08 01:31 36.02633 -86.03214 30064 ft 351 kts 278°
2026-05-08 01:31 36.03644 -86.09064 30058 ft 351 kts 278°
2026-05-08 01:32 36.04666 -86.14997 30048 ft 351 kts 278°
2026-05-08 01:32 36.05672 -86.20893 30054 ft 351 kts 278°
2026-05-08 01:33 36.06676 -86.26782 30035 ft 350 kts 278°
2026-05-08 01:33 36.07680 -86.32679 30057 ft 350 kts 278°
2026-05-08 01:34 36.08678 -86.38574 30061 ft 350 kts 278°
2026-05-08 01:34 36.09668 -86.44466 30062 ft 350 kts 278°
2026-05-08 01:35 36.10662 -86.50369 30064 ft 351 kts 278°
2026-05-08 01:35 36.11659 -86.56272 30062 ft 351 kts 278°
2026-05-08 01:36 36.12646 -86.62186 30055 ft 352 kts 278°
2026-05-08 01:36 36.13476 -86.68136 30051 ft 350 kts 270°
2026-05-08 01:37 36.12798 -86.74092 30054 ft 352 kts 261°
2026-05-08 01:37 36.11859 -86.80028 30045 ft 352 kts 262°
2026-05-08 01:38 36.10919 -86.85966 30044 ft 352 kts 261°
2026-05-08 01:38 36.09975 -86.91901 30042 ft 352 kts 262°
2026-05-08 01:39 36.09026 -86.97845 30050 ft 353 kts 261°
2026-05-08 01:39 36.08069 -87.03795 30052 ft 353 kts 261°
2026-05-08 01:40 36.07107 -87.09749 30050 ft 353 kts 261°
2026-05-08 01:40 36.06145 -87.15700 30057 ft 353 kts 261°
2026-05-08 01:41 36.05342 -87.20657 30072 ft 354 kts 261°
2026-05-08 01:41 36.04378 -87.26614 30073 ft 354 kts 261°
2026-05-08 01:42 36.03411 -87.32567 30075 ft 353 kts 261°
2026-05-08 01:42 36.02440 -87.38496 30061 ft 353 kts 261°
2026-05-08 01:43 36.01456 -87.44460 30064 ft 353 kts 261°
2026-05-08 01:43 36.00472 -87.50408 30065 ft 354 kts 261°
2026-05-08 01:44 35.99487 -87.56360 30066 ft 354 kts 261°
2026-05-08 01:44 35.98498 -87.62322 30075 ft 354 kts 261°
2026-05-08 01:45 35.97506 -87.68281 30078 ft 354 kts 261°
2026-05-08 01:45 35.96499 -87.74237 30069 ft 355 kts 261°
2026-05-08 01:46 35.95461 -87.80187 30076 ft 355 kts 260°
2026-05-08 01:46 35.94420 -87.86142 30074 ft 355 kts 260°
2026-05-08 01:47 35.93385 -87.92101 30078 ft 355 kts 260°
2026-05-08 01:47 35.92353 -87.98059 30083 ft 355 kts 260°
2026-05-08 01:48 35.90796 -88.06997 30084 ft 355 kts 260°
2026-05-08 01:48 35.89750 -88.12957 30088 ft 356 kts 260°
2026-05-08 01:49 35.88721 -88.18778 30083 ft 340 kts 260°
2026-05-08 01:49 35.87719 -88.24441 30082 ft 337 kts 260°
2026-05-08 01:50 35.86718 -88.30084 30082 ft 337 kts 260°
2026-05-08 01:50 35.85721 -88.35730 30092 ft 337 kts 261°
2026-05-08 01:51 35.84737 -88.41382 30091 ft 337 kts 261°
2026-05-08 01:51 35.83751 -88.47031 30088 ft 337 kts 261°
2026-05-08 01:52 35.82758 -88.52683 30080 ft 338 kts 260°
2026-05-08 01:52 35.81756 -88.58347 30078 ft 338 kts 260°
2026-05-08 01:53 35.80755 -88.64010 30080 ft 339 kts 260°
2026-05-08 01:53 35.79749 -88.69685 30085 ft 339 kts 260°
2026-05-08 01:54 35.78740 -88.75357 30086 ft 339 kts 260°
2026-05-08 01:54 35.77727 -88.81033 30087 ft 339 kts 260°
2026-05-08 01:55 35.77220 -88.83875 29614 ft 340 kts 260°
2026-05-08 01:55 35.76716 -88.86691 28632 ft 336 kts 260°
2026-05-08 01:55 35.76213 -88.89496 27705 ft 336 kts 260°
2026-05-08 01:55 35.75708 -88.92301 26799 ft 336 kts 260°
2026-05-08 01:56 35.75197 -88.95118 25925 ft 337 kts 260°
2026-05-08 01:56 35.74685 -88.97939 25075 ft 338 kts 260°
2026-05-08 01:56 35.74175 -89.00781 24441 ft 342 kts 260°
2026-05-08 01:56 35.73662 -89.03640 23827 ft 342 kts 260°
2026-05-08 01:57 35.72894 -89.06430 23139 ft 348 kts 248°
2026-05-08 01:57 35.71549 -89.08940 22582 ft 356 kts 235°
2026-05-08 01:57 35.69852 -89.11141 22267 ft 350 kts 233°
2026-05-08 01:57 35.68184 -89.13277 21840 ft 344 kts 233°
2026-05-08 01:58 35.66539 -89.15402 21345 ft 341 kts 233°
2026-05-08 01:58 35.64919 -89.17504 20696 ft 335 kts 233°
2026-05-08 01:58 35.63319 -89.19577 19971 ft 336 kts 233°
2026-05-08 01:58 35.61711 -89.21665 19462 ft 336 kts 233°
2026-05-08 01:59 35.60105 -89.23747 18936 ft 335 kts 233°
2026-05-08 01:59 35.58499 -89.25820 18433 ft 335 kts 233°
2026-05-08 01:59 35.56887 -89.27892 17872 ft 335 kts 232°
2026-05-08 01:59 35.55279 -89.29955 17300 ft 335 kts 232°
2026-05-08 02:00 35.53673 -89.32011 16785 ft 333 kts 232°
2026-05-08 02:00 35.52076 -89.34059 16285 ft 331 kts 232°
2026-05-08 02:00 35.50492 -89.36102 15791 ft 330 kts 232°
2026-05-08 02:00 35.48917 -89.38120 15535 ft 325 kts 232°
2026-05-08 02:01 35.47356 -89.40119 15283 ft 324 kts 232°
2026-05-08 02:01 35.45800 -89.42107 15001 ft 322 kts 232°
2026-05-08 02:01 35.44246 -89.44087 14703 ft 321 kts 232°
2026-05-08 02:01 35.42700 -89.46062 14415 ft 321 kts 232°
2026-05-08 02:02 35.41157 -89.48032 14125 ft 320 kts 232°
2026-05-08 02:02 35.39618 -89.49994 13824 ft 319 kts 231°
2026-05-08 02:02 35.38083 -89.51951 13531 ft 319 kts 231°
2026-05-08 02:02 35.36546 -89.53909 13239 ft 318 kts 231°
2026-05-08 02:03 35.35014 -89.55863 12954 ft 318 kts 231°
2026-05-08 02:03 35.33482 -89.57816 12673 ft 318 kts 231°
2026-05-08 02:03 35.31953 -89.59761 12406 ft 315 kts 231°
2026-05-08 02:03 35.30460 -89.61650 12272 ft 302 kts 231°
2026-05-08 02:04 35.29027 -89.63457 12150 ft 291 kts 232°
2026-05-08 02:04 35.27644 -89.65209 12003 ft 282 kts 232°
2026-05-08 02:04 35.26287 -89.66946 11865 ft 283 kts 232°
2026-05-08 02:04 35.24927 -89.68688 11536 ft 282 kts 232°
2026-05-08 02:05 35.23575 -89.70416 11224 ft 280 kts 232°
2026-05-08 02:05 35.22223 -89.72135 10915 ft 280 kts 232°
2026-05-08 02:05 35.20871 -89.73849 10614 ft 280 kts 232°
2026-05-08 02:05 35.19502 -89.75585 10302 ft 280 kts 232°
2026-05-08 02:06 35.18146 -89.77297 9988 ft 280 kts 232°
2026-05-08 02:06 35.16792 -89.79007 9667 ft 280 kts 231°
2026-05-08 02:06 35.15438 -89.80716 9356 ft 279 kts 231°
2026-05-08 02:06 35.14104 -89.82401 9056 ft 270 kts 231°
2026-05-08 02:07 35.12832 -89.84002 8764 ft 254 kts 231°
2026-05-08 02:07 35.11609 -89.85445 8492 ft 243 kts 221°
2026-05-08 02:07 35.10089 -89.86383 8221 ft 246 kts 200°
2026-05-08 02:07 35.08377 -89.86607 7952 ft 250 kts 184°
2026-05-08 02:08 35.06667 -89.86584 7675 ft 248 kts 183°
2026-05-08 02:08 35.04920 -89.86561 7393 ft 247 kts 183°
2026-05-08 02:08 35.03205 -89.86540 7101 ft 246 kts 182°
2026-05-08 02:08 35.01525 -89.86519 6830 ft 244 kts 182°
2026-05-08 02:09 34.99829 -89.86497 6569 ft 242 kts 182°
2026-05-08 02:09 34.98097 -89.86476 6039 ft 251 kts 181°
2026-05-08 02:09 34.96394 -89.86453 5840 ft 239 kts 180°
2026-05-08 02:09 34.94744 -89.86432 5408 ft 235 kts 180°
2026-05-08 02:10 34.93120 -89.86410 4983 ft 231 kts 180°
2026-05-08 02:10 34.91526 -89.86389 4543 ft 228 kts 180°
2026-05-08 02:10 34.89946 -89.86371 4081 ft 226 kts 180°
2026-05-08 02:10 34.88382 -89.86351 3617 ft 224 kts 179°
2026-05-08 02:11 34.86828 -89.86330 3159 ft 223 kts 179°
2026-05-08 02:11 34.85296 -89.86475 2685 ft 221 kts 200°
2026-05-08 02:11 34.84066 -89.87510 2210 ft 217 kts 235°
2026-05-08 02:11 34.83547 -89.89188 2006 ft 215 kts 263°
2026-05-08 02:12 34.83401 -89.91010 2003 ft 218 kts 267°
2026-05-08 02:12 34.83427 -89.92844 1993 ft 216 kts 287°
2026-05-08 02:12 34.84090 -89.94450 2002 ft 208 kts 308°
2026-05-08 02:12 34.85044 -89.95654 2003 ft 191 kts 323°
2026-05-08 02:13 34.86162 -89.96460 2027 ft 185 kts 338°
2026-05-08 02:13 34.87386 -89.96880 2014 ft 182 kts 352°
2026-05-08 02:13 34.88587 -89.96952 2014 ft 163 kts 359°
2026-05-08 02:13 34.89688 -89.96976 2018 ft 155 kts 359°
2026-05-08 02:14 34.90753 -89.96999 2016 ft 152 kts 359°
2026-05-08 02:14 34.91793 -89.97020 2014 ft 146 kts 359°
2026-05-08 02:14 34.92791 -89.97041 2015 ft 142 kts 359°
2026-05-08 02:14 34.93777 -89.97062 1967 ft 141 kts 359°
2026-05-08 02:15 34.94758 -89.97083 1837 ft 141 kts 360°
2026-05-08 02:15 34.95735 -89.97103 1675 ft 140 kts 359°
2026-05-08 02:15 34.96709 -89.97123 1489 ft 141 kts 359°
2026-05-08 02:15 34.97701 -89.97144 1308 ft 143 kts 359°
2026-05-08 02:16 34.98690 -89.97165 1112 ft 141 kts 359°
2026-05-08 02:16 34.99654 -89.97185 930 ft 137 kts 359°
2026-05-08 02:16 35.00625 -89.97206 749 ft 143 kts 359°
2026-05-08 02:16 35.01623 -89.97227 553 ft 141 kts 359°
2026-05-08 02:17 35.02589 -89.97241 328 ft 137 kts 356°
2026-05-08 02:17 35.03444 -89.97264 308 ft 105 kts 358°
2026-05-08 02:17 35.04047 -89.97281 313 ft 68 kts 359°
2026-05-08 02:17 35.04429 -89.97302 318 ft 46 kts 349°
2026-05-08 02:18 35.04610 -89.97420 318 ft 8 kts 311°
2026-05-08 02:18 35.04633 -89.97478 316 ft 8 kts 281°
2026-05-08 02:18 35.04633 -89.97565 315 ft 15 kts 266°
2026-05-08 02:18 35.04623 -89.97736 314 ft 25 kts 265°
2026-05-08 02:19 35.04623 -89.97762 314 ft 0 kts 277°
2026-05-08 02:19 35.04625 -89.97792 314 ft 12 kts 272°
2026-05-08 02:20 35.04568 -89.97835 314 ft 10 kts 178°
2026-05-08 02:20 35.04492 -89.97833 315 ft 17 kts 179°
2026-05-08 02:20 35.04355 -89.97830 316 ft 20 kts 180°
2026-05-08 02:20 35.04209 -89.97832 315 ft 22 kts 180°
2026-05-08 02:21 35.04047 -89.97844 313 ft 20 kts 200°
2026-05-08 02:21 35.03974 -89.97961 312 ft 19 kts 271°
2026-05-08 02:21 35.04015 -89.98061 310 ft 11 kts 327°
2026-05-08 02:21 35.04070 -89.98040 312 ft 7 kts 45°
2026-05-08 02:22 35.04077 -89.98031 312 ft 0 kts 45°